Vorticity
9 10 10 9 10 10 11 11 11 11 12 14 13 10 7 6 8 10 11 10 9 7 5 4 4 4 4 5 5 5 5 6 6 6 6 5 5 3 1 -2 -4 -4 -3 -2 -3 -5 -6 -6 -4 -2 0 2 2 4 5 6 8 9 10 10 9 9 9 10 9 8 7 5 4
9 9 9 7 9 9 10 11 11 11 12 15 16 15 11 7 5 6 7 9 8 6 5 4 4 3 3 4 5 6 7 7 7 6 5 4 3 1 -2 -5 -5 -2 -1 -2 -5 -7 -8 -6 -3 -1 1 3 4 5 7 8 9 10 11 12 11 12 12 13 13 12 10 8 7
8 9 9 8 8 9 10 11 12 12 14 16 18 18 15 7 0 1 4 8 8 7 6 5 3 3 3 4 5 7 9 9 8 6 4 2 0 -2 -4 -4 -1 1 -0 -4 -8 -9 -7 -4 -2 1 2 4 6 7 8 9 10 11 12 14 15 15 15 15 15 14 12 10 9
8 8 9 10 7 7 8 10 11 14 16 17 16 14 9 -1 -4 -0 6 10 10 9 7 6 4 3 3 4 5 7 9 10 8 5 2 1 -1 -2 -2 0 2 1 -2 -7 -9 -8 -6 -3 -0 2 4 5 7 8 9 11 12 12 14 16 17 17 17 18 17 16 14 12 10
9 8 8 9 6 6 6 8 11 13 14 11 8 3 -2 -6 -1 6 12 14 12 10 8 6 5 5 5 5 6 7 7 7 6 5 5 5 2 0 0 3 3 -0 -4 -7 -8 -6 -3 1 3 5 6 7 8 10 12 13 14 15 16 17 18 19 19 19 18 17 15 13 12
9 9 9 9 7 6 7 9 10 10 8 4 2 1 1 4 11 15 16 13 10 8 7 6 6 6 5 5 5 6 5 4 6 8 9 8 4 2 2 3 -0 -3 -6 -7 -4 -1 2 4 6 7 9 10 13 15 17 18 19 20 20 20 20 20 19 19 18 17 16 14 13
9 9 10 10 8 7 7 10 10 7 4 2 6 10 14 17 20 19 14 7 4 4 6 7 6 6 6 5 5 5 5 6 9 11 10 7 4 3 3 -0 -3 -4 -4 -3 -0 2 4 6 8 10 13 15 18 21 23 24 25 25 24 24 23 21 20 20 20 19 18 17 16
9 10 10 10 8 7 6 7 7 5 3 6 16 22 24 24 25 19 10 0 0 3 5 7 7 6 6 5 5 7 9 12 13 10 7 3 1 0 -1 -2 -2 -2 -1 0 1 3 5 8 12 16 20 23 25 27 28 29 29 28 27 25 23 22 21 20 21 20 19 18 16
9 9 10 11 11 9 6 3 1 2 5 14 23 27 27 25 19 10 1 -4 -0 3 6 7 7 6 5 5 7 11 12 11 7 3 -0 -2 -2 -2 -1 1 1 1 0 0 2 5 10 15 21 25 28 30 30 30 30 29 27 25 22 18 17 16 16 15 15 15 14 13 10
8 9 10 12 13 12 9 4 1 2 7 15 21 22 17 7 -3 -7 -7 -3 2 5 6 6 5 5 6 8 12 11 7 1 -2 -4 -5 -3 -0 2 4 4 2 0 -0 2 6 13 20 26 30 31 31 29 26 24 22 21 19 17 15 13 11 11 10 9 8 7 6 4 2
8 9 11 13 14 13 12 8 5 5 7 10 11 8 3 -3 -8 -8 -5 1 5 6 6 6 7 9 11 12 8 3 -2 -6 -6 -4 -1 3 6 7 6 3 0 1 4 10 18 26 31 33 31 28 25 22 19 17 15 14 14 13 11 10 8 7 6 5 5 5 5 4 3
8 10 11 13 12 12 12 11 9 8 8 7 3 -2 -6 -7 -6 -4 1 7 8 7 7 9 11 11 8 3 -2 -5 -6 -4 -1 3 7 9 8 6 4 1 3 9 16 25 32 34 33 28 22 19 16 14 12 10 9 7 7 6 5 4 4 4 5 5 7 8 9 10 10
9 11 12 14 13 12 11 10 10 10 8 5 -2 -8 -10 -8 -4 1 7 11 9 7 6 6 4 0 -3 -5 -4 -2 1 5 7 8 8 6 4 3 4 7 14 22 29 35 34 29 22 16 13 11 9 8 7 6 6 6 6 7 6 6 6 8 9 10 11 12 14 15 17
10 11 13 15 14 12 9 8 7 6 4 -1 -7 -9 -8 -4 1 6 9 10 8 6 4 1 -1 -3 -2 0 4 6 8 9 7 5 3 2 4 7 12 19 25 30 33 31 23 16 10 8 9 9 9 8 7 7 7 7 8 9 9 10 10 11 12 13 14 15 17 19 20
9 8 8 10 9 8 6 3 1 0 -2 -5 -7 -7 -3 2 6 8 9 8 7 5 4 3 4 5 6 8 10 9 8 5 2 2 3 6 10 16 21 26 29 28 23 16 9 6 6 8 9 10 10 10 8 7 7 8 9 10 11 11 10 9 8 8 9 10 12 13 14
10 8 5 4 5 5 3 1 -0 -1 -2 -4 -4 -1 2 6 7 8 7 7 6 6 6 7 7 7 8 9 8 5 2 0 1 4 8 12 17 21 25 27 23 17 10 5 4 5 6 8 9 9 9 8 6 5 5 7 9 9 9 8 7 5 3 1 1 0 0 0 1
13 11 9 7 7 7 6 5 5 4 4 4 4 6 7 7 6 6 6 6 5 6 7 8 7 6 6 5 4 2 1 2 5 9 12 16 21 24 24 20 13 8 5 5 6 7 7 7 8 8 8 7 5 5 5 6 8 8 7 6 5 3 2 0 -1 -2 -3 -3 -2
15 14 13 11 12 13 13 14 14 14 14 13 12 10 8 7 5 5 5 5 4 4 6 7 6 6 5 4 2 2 3 5 8 12 15 20 23 22 18 11 7 5 6 8 9 9 9 8 8 8 8 8 7 7 7 8 9 9 9 9 9 9 9 9 8 8 7 7 7
15 13 11 10 12 14 17 18 19 20 19 17 14 11 8 6 5 5 4 3 2 3 4 6 5 5 4 3 2 3 5 7 11 15 20 23 21 17 11 7 5 6 7 9 10 9 8 7 6 5 5 5 5 6 8 10 11 12 13 14 14 14 15 15 15 15 15 15 14
11 9 7 6 7 9 11 14 17 19 19 17 13 10 7 5 4 3 1 -0 0 2 4 5 5 4 3 3 2 3 6 10 16 20 22 21 16 12 9 7 7 8 9 10 9 8 6 5 4 4 4 5 6 7 9 11 13 14 15 15 15 14 14 14 14 14 14 15 15
9 8 6 4 2 1 1 3 8 12 14 13 10 8 6 4 2 1 -0 -1 2 4 5 5 5 4 3 2 3 6 11 17 20 21 19 16 13 11 11 11 11 11 12 12 11 10 10 9 9 10 10 10 10 10 10 10 11 12 12 12 12 12 12 12 12 12 12 12 12
12 11 8 6 3 -1 -3 -4 -1 2 4 5 5 5 4 3 2 1 2 3 5 6 5 4 3 2 2 3 7 13 18 21 20 18 16 14 13 13 14 15 15 14 14 13 13 13 13 14 14 13 13 12 10 9 8 8 8 8 8 9 9 9 9 9 9 9 9 8 8
18 16 14 11 9 5 1 -2 -3 -2 -1 1 3 5 6 5 4 4 5 6 6 5 4 3 2 3 5 8 14 18 20 19 16 14 14 15 15 15 15 15 14 14 13 12 11 10 11 12 12 12 12 11 10 9 8 7 7 6 6 6 6 6 6 6 6 6 6 5 5
23 20 18 18 18 17 15 11 9 7 7 7 8 8 8 8 7 6 6 6 5 4 3 3 5 7 11 15 19 21 20 16 13 12 12 14 13 13 12 11 11 12 12 11 10 9 9 10 10 9 9 9 8 7 7 6 6 5 4 4 3 3 3 3 3 3 3 3 3
19 17 18 21 23 24 24 22 20 17 15 13 12 10 9 8 8 7 6 5 4 4 5 7 10 13 17 21 22 21 19 15 12 11 10 11 11 11 11 11 11 11 10 9 8 7 7 7 7 6 5 5 4 4 4 4 4 4 3 3 3 3 3 3 3 3 4 4 4
7 10 14 17 18 19 20 20 18 17 15 13 12 11 10 8 7 7 6 5 6 8 10 12 16 20 23 24 22 18 15 12 11 10 11 12 12 11 10 8 6 5 5 5 5 4 4 4 4 4 4 3 3 3 3 3 4 4 4 5 5 6 6 6 6 5 5 5 5
2 6 9 11 12 12 12 12 12 12 11 11 10 10 9 9 8 8 8 9 12 14 16 19 23 25 25 22 17 12 10 9 11 13 13 11 8 6 4 3 3 3 3 3 4 4 3 3 3 3 3 4 4 5 5 5 6 6 6 6 6 6 6 6 6 6 5 5 4
8 9 9 10 10 10 9 10 10 11 11 11 11 11 11 11 12 13 15 17 18 20 22 25 26 23 19 14 11 9 9 11 12 11 8 5 4 3 3 3 2 2 2 2 2 2 2 3 3 4 5 6 6 6 7 7 7 6 6 6 5 5 5 5 5 4 4 4 4
15 13 12 12 12 12 11 11 12 12 13 14 15 16 16 17 18 20 21 22 24 26 27 26 22 18 15 13 12 12 11 10 7 5 4 3 3 3 3 3 2 2 2 2 3 4 4 5 6 6 7 7 7 6 6 6 5 5 5 5 4 4 4 4 4 5 5 5 5
13 13 13 13 13 13 13 13 13 13 13 14 15 16 17 18 20 22 24 26 27 25 22 16 13 12 11 10 8 6 4 3 3 3 4 3 3 2 2 2 3 3 4 4 5 6 6 7 7 7 6 6 6 5 5 5 5 5 5 5 5 5 5 5 5 6 6 6 6
9 10 11 12 13 14 14 14 14 14 14 15 15 16 17 19 20 21 20 18 15 12 10 9 7 6 5 4 3 3 3 3 3 3 3 2 2 3 3 4 4 5 6 6 7 7 7 6 6 6 6 5 5 5 5 5 5 5 5 6 6 6 6 7 7 7 8 8 8
11 13 14 16 17 18 19 19 20 20 21 22 22 23 22 22 19 15 12 10 8 7 6 6 5 4 3 3 3 3 3 3 3 2 3 3 4 5 6 6 7 7 7 7 6 6 6 5 5 5 5 5 5 5 5 6 6 6 6 7 7 8 8 8 8 9 9 10 10
19 20 22 23 22 22 23 24 25 25 25 24 22 19 17 14 12 10 8 7 5 5 4 4 3 3 3 3 3 3 3 3 3 4 4 5 6 7 7 7 7 6 6 6 5 5 5 5 5 5 6 6 6 6 7 7 7 8 8 8 9 9 9 10 10 10 10 11 11
20 20 20 19 18 18 17 17 16 15 14 13 12 10 9 7 6 5 4 3 3 3 2 2 2 2 2 2 3 3 4 5 6 6 6 7 7 7 6 6 6 5 5 5 5 6 6 6 6 7 7 7 7 8 8 8 9 9 9 9 10 10 10 10 10 10 10 10 10
13 11 10 9 8 8 7 7 6 6 5 5 4 4 4 4 4 4 3 3 3 2 2 2 2 3 4 5 5 6 7 7 7 7 6 6 6 6 5 5 5 6 6 6 7 7 7 7 8 8 8 8 8 8 9 9 9 9 9 9 9 9 9 9 9 9 9 9 9
5 4 4 3 3 3 3 3 3 3 3 2 3 3 3 3 3 3 3 3 3 3 3 4 5 6 6 7 7 6 6 6 6 6 6 6 6 6 6 6 7 7 7 8 8 8 8 8 8 8 8 8 8 8 8 8 8 8 8 8 8 8 8 8 8 8 9 9 9
2 2 2 2 2 2 2 2 2 2 2 2 2 3 3 3 3 3 3 4 4 5 5 6 6 6 6 6 6 6 5 6 6 6 6 6 6 7 7 8 8 8 8 8 8 8 8 8 8 8 8 7 7 7 7 7 7 7 8 8 8 8 9 9 9 9 10 10 11
1 2 2 2 2 3 3 3 3 3 4 4 4 4 5 5 5 5 6 6 6 6 6 6 6 6 6 6 6 6 6 6 7 7 7 8 8 8 8 8 8 8 8 8 8 8 8 8 7 7 7 8 8 7 7 7 7 8 8 8 9 9 10 10 11 11 12 12 13
4 4 4 5 5 6 6 6 6 6 6 6 6 6 6 6 6 6 6 6 6 6 6 6 6 6 7 7 7 7 8 8 8 8 8 8 8 8 8 8 8 8 8 7 7 7 7 7 7 8 8 8 9 9 8 8 8 9 9 9 9 9 10 10 11 11 12 12 13
6 6 7 7 7 7 7 7 6 6 6 6 6 6 6 6 6 6 7 7 7 7 7 7 8 8 8 8 8 8 8 8 8 8 8 8 8 8 8 8 8 8 8 7 7 8 8 8 8 8 9 9 9 9 9 9 9 9 9 9 8 8 8 9 9 10 10 11 11
7 6 6 6 6 6 6 6 6 6 6 6 7 7 7 7 7 8 8 8 8 8 8 8 8 8 8 8 8 8 8 8 8 8 8 8 8 8 8 8 8 8 8 8 8 8 9 9 9 9 9 9 9 9 9 9 8 8 9 8 8 8 8 8 8 9 10 11 12
Height
3037 3039 3041 3042 3043 3045 3045 3045 3046 3047 3049 3050 3051 3052 3054 3056 3056 3057 3058 3060 3061 3063 3065 3066 3067 3068 3069 3069 3070 3070 3070 3070 3070 3070 3070 3070 3070 3070 3070 3071 3071 3071 3071 3071 3071 3070 3070 3070 3069 3068 3068 3067 3066 3066 3065 3065 3066 3065 3065 3065 3065 3064 3063 3063 3062 3062 3063 3063 3063
3035 3037 3039 3041 3042 3041 3041 3042 3044 3045 3047 3049 3050 3051 3053 3055 3055 3056 3058 3059 3060 3062 3063 3064 3065 3066 3066 3067 3068 3068 3068 3068 3068 3068 3068 3068 3068 3068 3068 3068 3068 3069 3069 3069 3068 3068 3067 3067 3066 3065 3065 3064 3063 3063 3062 3062 3062 3062 3062 3061 3061 3061 3060 3060 3059 3059 3059 3059 3060
3034 3035 3037 3039 3039 3038 3038 3041 3042 3044 3045 3047 3048 3050 3052 3053 3054 3055 3057 3058 3059 3060 3061 3062 3063 3064 3065 3065 3066 3066 3066 3066 3066 3066 3066 3066 3066 3066 3066 3066 3066 3066 3066 3066 3066 3065 3065 3064 3063 3062 3062 3061 3060 3059 3058 3058 3058 3058 3058 3057 3058 3057 3057 3056 3056 3056 3056 3056 3056
3031 3034 3035 3036 3036 3037 3038 3040 3041 3042 3044 3045 3047 3049 3051 3052 3053 3054 3055 3057 3058 3059 3060 3060 3061 3062 3062 3063 3064 3064 3064 3064 3064 3064 3064 3064 3064 3064 3064 3064 3064 3064 3064 3064 3063 3062 3061 3061 3060 3060 3059 3058 3057 3056 3055 3055 3054 3054 3053 3053 3054 3054 3054 3053 3053 3053 3053 3052 3052
3030 3031 3032 3034 3035 3037 3038 3039 3040 3042 3044 3046 3047 3049 3050 3050 3051 3053 3054 3055 3056 3057 3058 3058 3059 3060 3060 3061 3061 3061 3062 3062 3062 3062 3062 3062 3062 3062 3062 3061 3061 3061 3061 3061 3060 3060 3059 3058 3057 3056 3056 3055 3055 3054 3053 3052 3051 3050 3050 3050 3050 3050 3050 3050 3050 3050 3050 3050 3049
3029 3030 3030 3032 3034 3036 3037 3038 3040 3042 3044 3045 3046 3047 3048 3049 3050 3051 3052 3053 3054 3055 3056 3056 3057 3057 3058 3058 3059 3059 3059 3060 3060 3060 3060 3060 3060 3060 3059 3059 3059 3058 3058 3058 3057 3056 3056 3055 3054 3053 3053 3052 3051 3051 3050 3049 3048 3047 3047 3046 3046 3047 3047 3047 3047 3047 3047 3046 3046
3027 3028 3030 3031 3033 3035 3037 3038 3040 3041 3042 3043 3044 3045 3045 3046 3048 3049 3050 3051 3053 3054 3054 3054 3055 3055 3055 3056 3056 3057 3057 3057 3057 3057 3057 3057 3057 3057 3057 3056 3056 3056 3055 3055 3054 3053 3053 3052 3051 3050 3049 3049 3048 3047 3047 3046 3045 3045 3044 3044 3043 3044 3044 3044 3044 3044 3044 3043 3044
3026 3027 3029 3030 3032 3034 3036 3038 3039 3040 3041 3041 3042 3043 3044 3045 3046 3048 3049 3050 3051 3051 3052 3052 3053 3053 3054 3054 3055 3055 3055 3055 3055 3055 3055 3055 3055 3055 3055 3054 3054 3053 3052 3052 3051 3050 3050 3049 3048 3047 3046 3045 3045 3044 3043 3043 3043 3042 3041 3041 3041 3041 3041 3041 3040 3040 3040 3040 3040
3025 3026 3027 3029 3031 3033 3035 3037 3038 3039 3040 3040 3041 3042 3044 3045 3045 3046 3047 3048 3049 3050 3050 3051 3051 3051 3052 3052 3053 3053 3053 3052 3052 3052 3052 3052 3052 3052 3052 3052 3051 3050 3050 3049 3048 3047 3046 3045 3045 3044 3043 3042 3041 3041 3040 3040 3040 3040 3039 3039 3039 3039 3038 3038 3038 3038 3038 3038 3038
3024 3025 3026 3028 3030 3032 3034 3036 3037 3038 3039 3040 3041 3042 3043 3044 3044 3045 3045 3046 3047 3048 3049 3049 3050 3050 3050 3050 3050 3050 3050 3050 3050 3050 3050 3050 3050 3050 3050 3049 3049 3048 3047 3046 3045 3045 3043 3042 3041 3040 3040 3039 3039 3038 3038 3038 3037 3037 3037 3037 3036 3036 3036 3036 3036 3036 3035 3035 3035
3022 3024 3025 3027 3029 3031 3033 3035 3036 3037 3038 3040 3041 3041 3041 3042 3043 3043 3044 3045 3046 3047 3047 3048 3048 3048 3048 3048 3047 3047 3047 3048 3048 3048 3048 3048 3048 3048 3047 3047 3046 3045 3045 3044 3043 3042 3040 3039 3038 3038 3037 3036 3036 3036 3035 3035 3035 3035 3035 3035 3034 3034 3034 3034 3034 3034 3033 3033 3033
3021 3023 3025 3026 3028 3030 3032 3033 3035 3035 3036 3038 3039 3039 3040 3041 3041 3041 3042 3043 3044 3045 3045 3046 3045 3045 3045 3045 3045 3045 3046 3046 3046 3046 3046 3046 3046 3045 3045 3045 3044 3043 3042 3041 3040 3039 3038 3037 3036 3035 3035 3035 3034 3034 3034 3034 3033 3033 3033 3032 3032 3032 3032 3031 3031 3031 3031 3031 3030
3020 3022 3024 3025 3027 3029 3030 3032 3033 3034 3035 3036 3037 3038 3038 3039 3039 3040 3040 3041 3042 3043 3043 3043 3043 3043 3043 3043 3043 3044 3044 3045 3045 3044 3044 3044 3043 3043 3043 3042 3041 3040 3039 3038 3037 3037 3036 3035 3034 3034 3033 3033 3032 3032 3032 3032 3032 3031 3031 3030 3030 3030 3030 3029 3029 3029 3028 3028 3028
3020 3021 3023 3025 3027 3028 3030 3031 3032 3032 3033 3034 3035 3036 3036 3036 3037 3038 3039 3039 3040 3041 3041 3041 3041 3041 3041 3042 3042 3042 3042 3042 3042 3042 3041 3041 3041 3040 3040 3039 3039 3038 3037 3036 3035 3035 3034 3033 3033 3032 3032 3031 3031 3031 3030 3030 3030 3030 3029 3029 3028 3028 3027 3027 3026 3026 3026 3025 3025
3019 3021 3022 3024 3026 3027 3029 3030 3030 3031 3031 3032 3033 3033 3034 3034 3035 3036 3037 3038 3038 3039 3039 3039 3039 3040 3040 3040 3040 3040 3040 3040 3040 3039 3039 3039 3039 3038 3037 3036 3036 3035 3035 3034 3033 3033 3032 3032 3031 3031 3031 3030 3030 3029 3029 3029 3028 3028 3027 3026 3026 3025 3025 3025 3024 3024 3023 3023 3022
3018 3020 3021 3022 3024 3026 3027 3028 3028 3029 3029 3029 3030 3031 3032 3033 3033 3034 3035 3036 3036 3037 3037 3037 3038 3038 3038 3038 3038 3038 3038 3038 3037 3037 3037 3036 3036 3035 3035 3034 3033 3033 3032 3032 3031 3031 3030 3030 3030 3030 3029 3028 3028 3028 3028 3027 3027 3026 3025 3024 3024 3023 3023 3022 3022 3021 3021 3020 3020
3017 3018 3020 3020 3022 3024 3024 3025 3025 3026 3027 3028 3029 3030 3030 3031 3032 3033 3033 3034 3035 3035 3035 3036 3036 3036 3036 3036 3036 3036 3035 3035 3035 3035 3034 3034 3033 3032 3032 3031 3031 3031 3030 3030 3029 3029 3029 3028 3028 3027 3027 3026 3026 3026 3025 3025 3025 3024 3024 3023 3022 3021 3021 3020 3020 3019 3019 3018 3017
3016 3017 3019 3020 3021 3022 3023 3023 3024 3025 3025 3026 3027 3029 3029 3030 3031 3031 3032 3033 3033 3034 3034 3034 3034 3035 3035 3035 3034 3034 3033 3033 3033 3032 3032 3031 3030 3030 3030 3029 3029 3029 3028 3028 3028 3027 3027 3026 3026 3025 3025 3024 3024 3023 3023 3022 3022 3021 3021 3020 3020 3019 3018 3017 3017 3016 3016 3015 3015
3015 3017 3018 3020 3020 3021 3022 3022 3023 3024 3025 3026 3027 3028 3029 3030 3030 3031 3031 3032 3032 3032 3032 3032 3032 3033 3033 3032 3032 3031 3031 3031 3030 3030 3029 3028 3028 3028 3027 3027 3027 3027 3026 3026 3026 3025 3025 3024 3024 3023 3023 3022 3021 3021 3020 3020 3019 3018 3018 3017 3016 3016 3015 3014 3014 3013 3012 3012 3011
3015 3016 3017 3018 3019 3020 3022 3023 3023 3024 3025 3025 3026 3027 3028 3029 3029 3030 3030 3030 3030 3030 3030 3030 3031 3031 3030 3030 3030 3029 3029 3028 3028 3027 3026 3026 3026 3026 3025 3025 3025 3025 3024 3024 3023 3023 3023 3022 3022 3021 3020 3020 3019 3019 3018 3017 3016 3015 3015 3014 3013 3013 3012 3011 3010 3010 3009 3008 3007
3014 3015 3016 3017 3018 3020 3021 3022 3023 3023 3024 3025 3025 3026 3027 3027 3028 3028 3028 3028 3028 3029 3029 3029 3029 3028 3028 3027 3027 3027 3027 3026 3025 3025 3025 3025 3024 3024 3024 3023 3023 3022 3022 3021 3021 3021 3020 3020 3020 3019 3018 3017 3017 3016 3015 3015 3014 3013 3012 3011 3010 3010 3009 3008 3007 3006 3005 3005 3004
3013 3014 3015 3016 3017 3018 3019 3020 3021 3022 3022 3023 3024 3024 3025 3026 3026 3026 3026 3027 3027 3027 3027 3027 3026 3026 3025 3025 3025 3025 3025 3024 3024 3023 3023 3023 3023 3022 3022 3021 3021 3020 3020 3019 3019 3018 3018 3018 3017 3016 3015 3015 3014 3013 3013 3012 3011 3010 3010 3009 3008 3007 3006 3005 3004 3003 3003 3002 3001
3012 3013 3014 3015 3015 3016 3017 3018 3019 3020 3020 3021 3022 3023 3024 3024 3025 3025 3025 3025 3025 3025 3025 3024 3024 3024 3024 3024 3023 3023 3023 3022 3022 3022 3022 3021 3021 3020 3020 3019 3019 3018 3017 3016 3016 3016 3016 3015 3014 3014 3013 3012 3011 3011 3010 3009 3008 3008 3007 3006 3005 3004 3003 3002 3001 3000 3000 2999 2998
3011 3012 3013 3014 3015 3015 3016 3017 3018 3019 3019 3020 3021 3021 3022 3023 3023 3023 3023 3023 3023 3023 3022 3022 3022 3022 3022 3022 3021 3021 3021 3021 3020 3020 3020 3020 3019 3018 3017 3016 3016 3015 3015 3014 3014 3014 3013 3013 3012 3011 3010 3010 3009 3008 3007 3007 3006 3005 3004 3003 3002 3001 3000 3000 2999 2998 2997 2996 2995
3011 3012 3013 3013 3014 3015 3015 3016 3017 3018 3019 3019 3020 3020 3020 3021 3021 3021 3021 3021 3021 3021 3020 3020 3020 3020 3020 3020 3020 3020 3019 3019 3019 3018 3018 3017 3016 3016 3015 3015 3014 3014 3013 3013 3012 3012 3011 3010 3010 3009 3008 3008 3007 3006 3005 3004 3003 3002 3001 3000 3000 2999 2998 2997 2996 2995 2994 2993 2992
3011 3012 3012 3013 3014 3014 3015 3016 3016 3017 3017 3018 3018 3019 3019 3019 3019 3019 3019 3019 3019 3019 3019 3019 3019 3019 3019 3018 3018 3018 3018 3017 3017 3016 3016 3015 3015 3014 3014 3013 3012 3012 3011 3010 3010 3009 3009 3008 3007 3007 3006 3005 3005 3004 3003 3001 3000 2999 2998 2997 2996 2995 2994 2993 2992 2991 2990 2989 2988
3010 3011 3011 3012 3013 3013 3014 3015 3015 3015 3016 3016 3017 3017 3017 3017 3017 3017 3017 3017 3017 3017 3017 3017 3017 3017 3017 3017 3017 3016 3016 3015 3015 3015 3015 3014 3013 3013 3012 3011 3010 3010 3009 3008 3008 3007 3006 3005 3005 3004 3003 3003 3002 3001 3000 2999 2997 2996 2995 2994 2993 2992 2991 2990 2989 2988 2987 2985 2985
3009 3010 3011 3011 3012 3012 3013 3013 3014 3014 3015 3015 3015 3015 3016 3016 3016 3016 3016 3016 3016 3016 3016 3016 3016 3016 3016 3015 3015 3015 3014 3014 3014 3013 3013 3012 3011 3010 3010 3009 3008 3008 3007 3006 3005 3005 3004 3003 3002 3001 3000 3000 2999 2998 2997 2996 2995 2993 2992 2991 2990 2988 2987 2986 2985 2984 2983 2982 2981
3009 3010 3010 3011 3011 3011 3012 3012 3013 3013 3013 3014 3014 3014 3014 3015 3015 3015 3015 3015 3015 3015 3015 3015 3015 3015 3014 3014 3014 3013 3013 3013 3012 3012 3011 3010 3009 3008 3008 3007 3006 3005 3005 3004 3003 3002 3001 3000 3000 2999 2997 2996 2995 2995 2994 2993 2991 2990 2989 2988 2986 2985 2984 2982 2981 2980 2979 2978 2977
3009 3009 3010 3010 3010 3011 3011 3011 3012 3012 3012 3013 3013 3013 3013 3014 3014 3014 3014 3014 3014 3014 3014 3014 3014 3013 3013 3012 3012 3012 3011 3011 3010 3010 3009 3008 3007 3006 3005 3005 3004 3003 3002 3001 3001 3000 2999 2998 2997 2995 2995 2993 2992 2992 2991 2990 2988 2987 2985 2984 2983 2981 2980 2979 2977 2976 2975 2973 2972
3008 3009 3009 3010 3010 3010 3010 3011 3011 3011 3012 3012 3012 3012 3012 3013 3013 3013 3013 3013 3013 3013 3013 3012 3012 3012 3011 3011 3011 3010 3010 3009 3008 3007 3007 3006 3005 3004 3003 3002 3001 3001 3000 2999 2998 2997 2996 2995 2994 2993 2991 2990 2989 2988 2987 2986 2985 2983 2982 2980 2979 2977 2976 2974 2973 2971 2970 2969 2967
3008 3009 3009 3010 3010 3010 3010 3011 3011 3011 3011 3012 3012 3012 3012 3012 3012 3012 3012 3012 3012 3011 3011 3011 3010 3010 3010 3010 3009 3008 3008 3007 3006 3005 3005 3004 3003 3002 3001 3000 2999 2998 2998 2997 2995 2994 2993 2992 2991 2989 2988 2987 2986 2985 2984 2982 2981 2979 2978 2976 2975 2973 2972 2970 2969 2967 2965 2964 2963
3009 3009 3010 3010 3010 3010 3011 3011 3011 3012 3012 3012 3012 3012 3012 3012 3012 3012 3012 3011 3011 3010 3010 3010 3009 3009 3008 3007 3007 3006 3005 3005 3004 3003 3002 3002 3001 3000 2999 2998 2997 2996 2995 2994 2993 2991 2990 2989 2987 2986 2984 2983 2982 2981 2980 2978 2977 2975 2974 2972 2970 2969 2967 2966 2964 2963 2961 2960 2958
3009 3009 3010 3010 3010 3011 3011 3011 3011 3012 3012 3012 3012 3012 3012 3012 3011 3011 3011 3010 3010 3009 3009 3008 3007 3007 3006 3005 3005 3004 3004 3003 3002 3001 3000 3000 2999 2998 2997 2995 2995 2994 2992 2991 2990 2988 2987 2985 2984 2982 2980 2979 2978 2977 2976 2974 2973 2971 2969 2968 2966 2965 2963 2961 2960 2958 2956 2955 2953
3009 3010 3010 3010 3010 3011 3011 3011 3011 3011 3011 3011 3011 3011 3011 3010 3010 3010 3009 3009 3008 3007 3007 3006 3006 3005 3005 3004 3003 3002 3002 3001 3000 2999 2998 2997 2996 2995 2994 2993 2992 2990 2989 2988 2986 2985 2983 2981 2980 2978 2976 2975 2974 2973 2971 2970 2968 2966 2965 2963 2962 2960 2958 2957 2955 2953 2952 2950 2949
3010 3010 3010 3010 3010 3010 3010 3010 3010 3010 3010 3010 3010 3010 3009 3009 3008 3008 3008 3007 3006 3006 3005 3005 3004 3004 3003 3002 3001 3000 3000 2999 2998 2997 2996 2995 2994 2993 2991 2990 2989 2987 2986 2985 2983 2981 2979 2977 2975 2973 2972 2970 2969 2968 2967 2965 2964 2962 2960 2959 2957 2956 2954 2952 2951 2949 2947 2946 2944
3009 3009 3010 3010 3010 3010 3010 3010 3010 3009 3009 3009 3009 3008 3008 3007 3007 3007 3006 3006 3005 3005 3004 3003 3003 3002 3001 3000 2999 2999 2998 2997 2996 2995 2994 2992 2991 2990 2989 2987 2985 2984 2983 2981 2980 2978 2976 2974 2971 2969 2967 2966 2965 2964 2963 2961 2960 2958 2956 2955 2953 2951 2950 2948 2946 2945 2943 2941 2940
3009 3009 3009 3009 3009 3009 3009 3009 3009 3009 3008 3008 3008 3007 3007 3007 3006 3006 3005 3005 3004 3003 3002 3002 3001 3000 2999 2998 2997 2996 2995 2995 2993 2992 2991 2989 2988 2987 2985 2984 2982 2981 2980 2978 2976 2974 2972 2970 2968 2965 2963 2961 2960 2959 2958 2957 2956 2954 2952 2950 2949 2947 2945 2944 2942 2940 2939 2937 2935
3009 3009 3009 3009 3009 3009 3009 3009 3008 3008 3008 3007 3007 3006 3006 3005 3005 3005 3004 3003 3003 3002 3001 3000 2999 2998 2997 2996 2995 2994 2993 2992 2990 2989 2988 2986 2985 2984 2982 2980 2979 2977 2976 2974 2972 2970 2968 2966 2964 2961 2959 2957 2955 2954 2953 2952 2951 2950 2948 2946 2944 2943 2941 2939 2938 2936 2934 2933 2931
3010 3009 3009 3009 3009 3009 3009 3008 3008 3007 3007 3007 3006 3005 3005 3005 3004 3003 3003 3002 3001 3000 2999 2998 2997 2996 2995 2994 2993 2992 2990 2989 2988 2986 2985 2983 2981 2980 2979 2977 2975 2974 2972 2970 2968 2966 2964 2962 2960 2957 2955 2953 2951 2949 2948 2947 2946 2944 2942 2941 2939 2938 2936 2935 2933 2932 2930 2928 2927
3009 3009 3009 3009 3008 3008 3008 3007 3007 3007 3006 3006 3005 3005 3004 3003 3003 3002 3001 3000 2999 2998 2997 2996 2995 2994 2993 2992 2990 2989 2988 2986 2985 2983 2981 2980 2978 2976 2975 2973 2972 2970 2968 2966 2964 2962 2960 2958 2956 2954 2951 2949 2946 2944 2942 2941 2940 2939 2937 2935 2934 2932 2931 2930 2928 2927 2925 2923 2921